TimeCDT,TemperatureF,Dew PointF,Humidity,Sea Level PressureIn,VisibilityMPH,Wind Direction,Wind SpeedMPH,Gust SpeedMPH,PrecipitationIn,Events,Conditions,WindDirDegrees,DateUTC
12:56 AM,39.9,32.0,73,30.15,10.0,NNW,8.1,-,N/A,,Clear,330,2012-10-29 05:56:00
1:56 AM,38.8,32.0,76,30.15,10.0,NNW,8.1,-,N/A,,Clear,340,2012-10-29 06:56:00
2:56 AM,38.8,32.0,76,30.15,10.0,NNW,6.9,-,N/A,,Clear,340,2012-10-29 07:56:00
3:56 AM,38.8,32.9,79,30.15,10.0,NNW,10.4,-,N/A,,Clear,340,2012-10-29 08:56:00
4:56 AM,37.9,32.9,82,30.15,10.0,NNW,8.1,-,N/A,,Clear,340,2012-10-29 09:56:00
6:56 AM,36.9,32.0,83,30.16,10.0,NNW,12.7,-,N/A,,Clear,330,2012-10-29 11:56:00
7:56 AM,38.8,32.0,76,30.17,10.0,NNW,11.5,-,N/A,,Clear,340,2012-10-29 12:56:00
8:56 AM,41.9,31.1,66,30.17,10.0,North,12.7,23.0,N/A,,Clear,350,2012-10-29 13:56:00
9:56 AM,45.0,30.0,56,30.17,10.0,North,13.8,-,N/A,,Clear,350,2012-10-29 14:56:00
10:56 AM,50.0,28.0,43,30.17,10.0,North,15.0,23.0,N/A,,Clear,360,2012-10-29 15:56:00
11:56 AM,52.0,27.1,38,30.15,10.0,North,16.1,25.3,N/A,,Clear,360,2012-10-29 16:56:00
12:56 PM,54.0,27.1,36,30.12,10.0,North,13.8,29.9,N/A,,Clear,360,2012-10-29 17:56:00
1:56 PM,54.9,27.1,34,30.09,10.0,North,16.1,29.9,N/A,,Clear,350,2012-10-29 18:56:00
2:56 PM,54.9,27.1,34,30.07,10.0,NNW,18.4,32.2,N/A,,Clear,340,2012-10-29 19:56:00
3:56 PM,54.9,30.0,39,30.06,10.0,NNW,19.6,28.8,N/A,,Scattered Clouds,340,2012-10-29 20:56:00
4:56 PM,52.9,31.1,43,30.04,10.0,NNW,18.4,31.1,N/A,,Mostly Cloudy,330,2012-10-29 21:56:00
5:56 PM,52.0,32.0,47,30.02,10.0,NNW,18.4,27.6,N/A,,Scattered Clouds,330,2012-10-29 22:56:00
7:56 PM,50.0,32.9,52,30.01,10.0,NW,17.3,24.2,N/A,,Clear,320,2012-10-30 00:56:00
9:56 PM,47.8,31.1,52,29.99,10.0,NNW,15.0,23.0,N/A,,Clear,330,2012-10-30 02:56:00
10:56 PM,46.9,29.1,50,29.97,10.0,NNW,18.4,-,N/A,,Clear,330,2012-10-30 03:56:00
11:56 PM,45.9,28.0,50,29.95,10.0,NNW,15.0,-,N/A,,Clear,330,2012-10-30 04:56:00